カタログに戻る

COSMOS 839 DEB

運用中UNKNOWN
NORAD 10412·DEBRIS·🇷🇺 Russia

打ち上げ Jul 8, 1976 から Plesetsk Cosmodrome

Loading…

次のパス (今後24時間)

TLE

最新Source: Space-Track

元期: Sep 14, 2026, 05:24 UTC

1 10412U 76067F   26257.22567433 -.00000030  00000-0  94715-4 0  9992
2 10412  65.6817 168.2599 0686857   7.8693 144.4920 12.33843437260758

AllMySatでCOSMOS 839 DEBをリアルタイム追跡

Download on the App Store